Flag for Germany Weather past 2 weeks in Siegen, North Rhine-Westphalia, Germany

Now
39 °F

Passing clouds.


Feels Like: 36 °F
Forecast: 28 / 48 °F
Wind: 5 mph from Southwest

Location: Hessen

Current Time: Mar 6, 2015 at 7:13:57 PM

Latest Report: Mar 6, 2015 at 6:20 PM


Visibility: N/A

Pressure: 30.51 "Hg

Humidity: 70%

Dew point: 30 °F

Location of SiegenLocation

Historic Weather in Siegen — Graph

°F

Siegen temperature yesterday

Maximum temperature yesterday: 37 °F (at 2:20 PM)
Minimum temperature yesterday: 30 °F (at 7:20 AM)
Average temperature yesterday: 34 °F

Past Weeks' High & Low Weather Summary

 TemperatureHumidityPressure
High88 °F (Feb 19, 5:50 PM)100% (Feb 19, 5:20 PM)30.57 "Hg (Feb 19, 5:20 PM)
Low27 °F (Feb 19, 5:20 PM)60% (Feb 22, 2:20 PM)29.36 "Hg (Feb 21, 7:50 AM)
Average35 °F89%29.92 "Hg
* Reported Feb 19 5:20 PM — Mar 6 5:50 PM, Siegen, Weather by CustomWeather, © 2015

Note: Actual official high and low records may vary slightly from our data, if they occured in-between our weather recording intervals... More about our weather records

Advertising

Siegen weather history for previous 24 hours

 ConditionsComfort  
Time TempWeatherWind HumidityBarometerVisibility
5:50 PM
Fri, Mar 6
39 °FPartly sunny.3 mph70%30.51 "HgN/A
5:20 PM39 °FPartly sunny.5 mph70%30.51 "HgN/A
4:50 PM41 °FPartly sunny.3 mph66%30.51 "HgN/A
4:20 PM41 °FPartly sunny.2 mph66%30.51 "HgN/A
3:50 PM39 °FPartly sunny.5 mph70%30.54 "HgN/A
3:20 PM39 °FBroken clouds.6 mph70%30.54 "HgN/A
2:50 PM39 °FBroken clouds.3 mph70%30.54 "HgN/A
2:20 PM39 °FMore clouds than sun.5 mph70%30.54 "HgN/A
1:50 PM39 °FPartly sunny.7 mph70%30.54 "HgN/A
1:20 PM37 °FPartly sunny.7 mph75%30.54 "HgN/A
12:50 PM37 °FPartly sunny.7 mph81%30.57 "HgN/A
12:20 PM37 °FOvercast.7 mph81%30.57 "HgN/A
11:50 AM36 °FOvercast.6 mph87%30.57 "HgN/A
11:20 AM36 °FOvercast.8 mph87%30.57 "HgN/A
10:50 AM36 °FOvercast.8 mph87%30.57 "HgN/A
10:20 AM36 °FPartly sunny.9 mph87%30.57 "HgN/A
9:50 AM36 °FPartly sunny.8 mph87%30.57 "HgN/A
9:20 AM36 °FPartly sunny.8 mph87%30.57 "HgN/A
8:50 AM34 °FPartly sunny.9 mph93%30.57 "HgN/A
8:20 AM34 °FPartly sunny.7 mph93%30.57 "HgN/A
7:50 AM34 °FPartly sunny.9 mph87%30.57 "HgN/A
8:50 PM
Thu, Mar 5
34 °FClear.5 mph93%30.57 "Hg10 mi
8:20 PM34 °FClear.5 mph93%30.57 "Hg10 mi
7:50 PM36 °FClear.6 mph87%30.57 "Hg10 mi
7:20 PM36 °FClear.5 mph87%30.57 "Hg10 mi
Weather by CustomWeather, © 2015

See weather overviewHow to use our weather pages